Willimantic, CT

7:50 AM EDT on August 18, 2019 (GMT -0400)
Windham

Weather History for KIJD - June, 2019

Change the Weather History Date:

Friday, June 14, 2019

  Actual Average Record
Temperature  
Mean Temperature 62 °F -  
Max Temperature 70 °F 76 °F 94 °F (1956)
Min Temperature 53 °F 52 °F 39 °F (1979)
Degree Days  
Heating Degree Days 4    
Growing Degree Days 12 (Base 50)    
Moisture  
Dew Point 52 °F    
Average Humidity 75    
Maximum Humidity 100    
Minimum Humidity 47    
Precipitation  
Precipitation 0.00 in - - ()
Sea Level Pressure  
Sea Level Pressure 29.83 in    
Wind  
Wind Speed 5 mph ()    
Max Wind Speed 15 mph    
Max Gust Speed 24 mph    
Visibility 8.4 miles    
Events      
Averages and records for this station are not official NWS values.
T = Trace of Precipitation, MM = Missing Value Source: Averaged Metar Reports

Daily Weather History Graph

Daily Weather History Graph

Search for Another Location

Airport or City:

Astronomy

Jun. 14, 2019 Rise Set
Actual Time 5:13 AM EDT 8:24 PM EDT
Civil Twilight 4:39 AM EDT 8:58 PM EDT
Nautical Twilight 3:55 AM EDT 9:42 PM EDT
Astronomical Twilight 3:02 AM EDT 10:35 PM EDT
Moon 5:40 PM EDT (6/14) 3:32 AM EDT (6/14)
Length of Visible Light 16h 19m
Length of Day
15h 11m
Waxing Gibbous, 92% of the Moon is Illuminated
Jun 14
Waxing Gibbous
Jun 17
Full
Jun 25
Last Quarter
Jul 2
New
Jul 9
First Quarter

Hourly Weather History & Observations

Time (EDT) Temp. Dew Point Humidity Pressure Visibility Wind Dir Wind Speed Gust Speed Precip Events Conditions
12:52 AM 53.1 °F 51.1 °F 93% 29.80 in 10.0 mi SSE 4.6 mph - 0.00 in   Overcast
1:52 AM 53.1 °F 51.1 °F 93% 29.81 in 10.0 mi SSW 4.6 mph - N/A   Overcast
2:52 AM 54.0 °F 52.0 °F 93% 29.79 in 10.0 mi Calm Calm - N/A   Overcast
3:21 AM 54.0 °F 52.0 °F 93% 29.79 in 9.0 mi Calm Calm - N/A   Overcast
3:52 AM 54.0 °F 53.1 °F 97% 29.79 in 6.0 mi South 3.5 mph - N/A   Overcast
4:14 AM 54.0 °F 53.1 °F 97% 29.79 in 2.0 mi South 5.8 mph - N/A   Overcast
4:21 AM 54.0 °F 53.1 °F 97% 29.79 in 1.5 mi SSW 4.6 mph - N/A   Overcast
4:52 AM 54.0 °F 54.0 °F 100% 29.80 in 1.0 mi South 4.6 mph - N/A   Overcast
5:13 AM 55.0 °F 54.0 °F 96% 29.80 in 3.0 mi South 3.5 mph - N/A   Overcast
5:29 AM 55.0 °F 54.0 °F 96% 29.80 in 6.0 mi Calm Calm - N/A   Overcast
5:52 AM 55.9 °F 55.0 °F 97% 29.81 in 5.0 mi Calm Calm - N/A   Overcast
6:13 AM 57.0 °F 55.0 °F 93% 29.81 in 7.0 mi SW 4.6 mph - N/A   Overcast
6:52 AM 57.9 °F 55.0 °F 90% 29.82 in 10.0 mi SSW 5.8 mph - N/A   Overcast
7:29 AM 60.1 °F 55.9 °F 86% 29.82 in 10.0 mi SSW 5.8 mph - N/A   Partly Cloudy
7:52 AM 61.0 °F 55.9 °F 83% 29.82 in 10.0 mi SW 5.8 mph - N/A   Clear
8:52 AM 63.0 °F 55.0 °F 75% 29.82 in 10.0 mi SSW 12.7 mph - N/A   Scattered Clouds
9:10 AM 64.0 °F 55.0 °F 73% 29.82 in 10.0 mi SW 11.5 mph - N/A   Mostly Cloudy
9:31 AM 64.9 °F 54.0 °F 68% 29.81 in 10.0 mi West 8.1 mph - N/A   Scattered Clouds
9:52 AM 66.0 °F 53.1 °F 63% 29.80 in 10.0 mi WSW 11.5 mph 17.3 mph N/A   Partly Cloudy
10:52 AM 66.9 °F 52.0 °F 59% 29.80 in 10.0 mi SW 6.9 mph - N/A   Mostly Cloudy
11:52 AM 66.9 °F 55.0 °F 66% 29.81 in 10.0 mi SSW 9.2 mph - N/A   Overcast
12:52 PM 68.0 °F 51.1 °F 55% 29.81 in 10.0 mi West 13.8 mph 20.7 mph N/A   Overcast
1:52 PM 68.0 °F 51.1 °F 55% 29.82 in 10.0 mi West 8.1 mph - N/A   Overcast
2:52 PM 70.0 °F 50.0 °F 49% 29.82 in 10.0 mi WSW 9.2 mph 24.2 mph N/A   Mostly Cloudy
3:52 PM 69.1 °F 50.0 °F 51% 29.84 in 10.0 mi West 12.7 mph 23.0 mph N/A   Overcast
4:52 PM 66.9 °F 48.0 °F 51% 29.86 in 10.0 mi WNW 13.8 mph 23.0 mph N/A   Mostly Cloudy
5:52 PM 66.9 °F 46.0 °F 47% 29.89 in 10.0 mi WNW 15.0 mph 23.0 mph N/A   Mostly Cloudy
6:52 PM 66.9 °F 46.9 °F 49% 29.91 in 10.0 mi NW 6.9 mph - N/A   Clear
7:52 PM 64.0 °F 46.9 °F 54% 29.94 in 10.0 mi West 4.6 mph - N/A   Clear
8:52 PM 63.0 °F 46.0 °F 54% 29.96 in 10.0 mi WSW 3.5 mph - N/A   Overcast
9:52 PM 59.0 °F 46.9 °F 64% 29.99 in 10.0 mi SW 3.5 mph - N/A   Clear